| time (UTC) | temp F | wind direction | speed MPH | gust MPH | rain 1hr in | rain 24hr in | rain mn in | humidity % | barometer mb |
| 20260505213046 | 90 | 259 | 2.0 | 5.0 | 0.00 | 0.00 | 0.00 | 53 | 998.3 |
| 20260505211544 | 90 | 204 | 2.0 | 8.0 | 0.00 | 0.00 | 0.00 | 53 | 998.7 |
| 20260505210042 | 89 | 169 | 2.0 | 11.0 | 0.00 | 0.00 | 0.00 | 57 | 998.8 |
| 20260505204538 | 89 | 171 | 3.0 | 11.0 | 0.00 | 0.00 | 0.00 | 57 | 998.8 |
| 20260505203038 | 88 | 161 | 2.0 | 7.0 | 0.00 | 0.00 | 0.00 | 56 | 999.2 |
| 20260505201542 | 87 | 205 | 4.0 | 8.0 | 0.00 | 0.00 | 0.00 | 59 | 999.4 |
| 20260505200045 | 87 | 205 | 3.0 | 8.0 | 0.00 | 0.00 | 0.00 | 59 | 999.4 |
| 20260505194539 | 87 | 166 | 4.0 | 9.0 | 0.00 | 0.00 | 0.00 | 61 | 999.4 |
| 20260505193037 | 87 | 178 | 4.0 | 13.0 | 0.00 | 0.00 | 0.00 | 60 | 999.4 |
| 20260505191530 | 85 | 175 | 4.0 | 13.0 | 0.00 | 0.00 | 0.00 | 63 | 999.5 |
| 20260505190026 | 84 | 228 | 3.0 | 11.0 | 0.00 | 0.00 | 0.00 | 64 | 999.3 |
| 20260505184528 | 84 | 182 | 6.0 | 11.0 | 0.00 | 0.00 | 0.00 | 63 | 999.5 |
| 20260505183040 | 84 | 209 | 4.0 | 12.0 | 0.00 | 0.00 | 0.00 | 62 | 999.6 |
| 20260505181525 | 84 | 161 | 5.0 | 12.0 | 0.00 | 0.00 | 0.00 | 65 | 999.6 |
| 20260505180021 | 83 | 208 | 4.0 | 10.0 | 0.00 | 0.00 | 0.00 | 66 | 999.6 |
| 20260505174521 | 82 | 175 | 5.0 | 14.0 | 0.00 | 0.00 | 0.00 | 67 | 999.5 |
| 20260505173022 | 82 | 202 | 5.0 | 13.0 | 0.00 | 0.00 | 0.00 | 69 | 999.5 |
| 20260505171515 | 80 | 176 | 6.0 | 10.0 | 0.00 | 0.00 | 0.00 | 70 | 999.6 |
| 20260505170014 | 80 | 224 | 5.0 | 11.0 | 0.00 | 0.00 | 0.00 | 71 | 999.7 |
| 20260505164510 | 79 | 197 | 6.0 | 10.0 | 0.00 | 0.00 | 0.00 | 73 | 999.8 |
| 20260505163009 | 78 | 196 | 5.0 | 12.0 | 0.00 | 0.00 | 0.00 | 73 | 999.9 |
| 20260505161507 | 78 | 173 | 5.0 | 12.0 | 0.00 | 0.00 | 0.00 | 73 | 999.7 |
| 20260505153002 | 76 | 130 | 5.0 | 13.0 | 0.00 | 0.00 | 0.00 | 77 | 999.3 |
| 20260505151608 | 75 | 196 | 6.0 | 14.0 | 0.00 | 0.00 | 0.00 | 78 | 999.3 |
| 20260505124603 | 71 | 157 | 6.0 | 18.0 | 0.00 | 0.00 | 0.00 | 83 | 999.1 |
| 20260505123054 | 71 | 177 | 5.0 | 10.0 | 0.00 | 0.00 | 0.00 | 83 | 998.9 |
| 20260505121553 | 71 | 196 | 5.0 | 13.0 | 0.00 | 0.00 | 0.00 | 83 | 998.8 |
| 20260505120056 | 71 | 169 | 6.0 | 15.0 | 0.00 | 0.00 | 0.00 | 82 | 998.6 |
| 20260505114551 | 71 | 182 | 7.0 | 13.0 | 0.00 | 0.00 | 0.00 | 82 | 998.5 |
| 20260505113055 | 71 | 198 | 6.0 | 13.0 | 0.00 | 0.00 | 0.00 | 82 | 998.5 |
| 20260505111550 | 71 | 165 | 6.0 | 14.0 | 0.00 | 0.00 | 0.00 | 82 | 998.4 |
| 20260505101547 | 72 | 167 | 8.0 | 16.0 | 0.00 | 0.00 | 0.00 | 81 | 998.1 |
| 20260505100047 | 72 | 153 | 6.0 | 12.0 | 0.00 | 0.00 | 0.00 | 81 | 998.6 |
| 20260505094546 | 72 | 172 | 6.0 | 18.0 | 0.00 | 0.00 | 0.00 | 81 | 998.4 |
| 20260505093044 | 72 | 174 | 7.0 | 12.0 | 0.00 | 0.00 | 0.00 | 81 | 998.8 |
| 20260505091542 | 72 | 173 | 5.0 | 14.0 | 0.00 | 0.00 | 0.00 | 81 | 999.0 |
| 20260505090042 | 72 | 175 | 8.0 | 14.0 | 0.00 | 0.00 | 0.00 | 80 | 999.0 |
| 20260505084545 | 72 | 157 | 7.0 | 14.0 | 0.00 | 0.00 | 0.00 | 79 | 999.0 |
| 20260505083036 | 72 | 132 | 7.0 | 12.0 | 0.00 | 0.00 | 0.00 | 79 | 998.9 |
| 20260505081534 | 72 | 185 | 4.0 | 12.0 | 0.00 | 0.00 | 0.00 | 79 | 999.0 |
| 20260505080037 | 73 | 150 | 7.0 | 14.0 | 0.00 | 0.00 | 0.00 | 78 | 999.0 |
| 20260505074535 | 73 | 148 | 6.0 | 16.0 | 0.00 | 0.00 | 0.00 | 77 | 999.2 |
| 20260505073038 | 73 | 169 | 6.0 | 15.0 | 0.00 | 0.00 | 0.00 | 77 | 999.6 |
| 20260505071526 | 73 | 177 | 7.0 | 11.0 | 0.00 | 0.00 | 0.00 | 76 | 999.6 |
| 20260505070036 | 73 | 191 | 7.0 | 13.0 | 0.00 | 0.00 | 0.00 | 75 | 999.9 |
| 20260505064522 | 74 | 181 | 6.0 | 14.0 | 0.00 | 0.00 | 0.00 | 74 | 1000.0 |
| 20260505063022 | 74 | 180 | 6.0 | 15.0 | 0.00 | 0.00 | 0.00 | 74 | 1000.1 |
| 20260505061524 | 74 | 186 | 6.0 | 14.0 | 0.00 | 0.00 | 0.00 | 73 | 1000.2 |
| 20260505060020 | 74 | 176 | 6.0 | 14.0 | 0.00 | 0.00 | 0.00 | 73 | 1000.1 |
| 20260505054523 | 74 | 163 | 5.0 | 12.0 | 0.00 | 0.00 | 0.00 | 72 | 1000.3 |
| 20260505053020 | 74 | 185 | 7.0 | 14.0 | 0.00 | 0.00 | 0.00 | 72 | 1000.4 |
| 20260505051520 | 75 | 194 | 6.0 | 13.0 | 0.00 | 0.00 | 0.00 | 71 | 1000.5 |
| 20260505041529 | 75 | 177 | 7.0 | 14.0 | 0.00 | 0.00 | 0.00 | 70 | 1000.6 |
| 20260505040023 | 75 | 173 | 5.0 | 13.0 | 0.00 | 0.00 | 0.00 | 70 | 1000.7 |
| 20260505034521 | 75 | 199 | 5.0 | 11.0 | 0.00 | 0.00 | 0.00 | 70 | 1000.7 |
| 20260505033014 | 75 | 180 | 6.0 | 16.0 | 0.00 | 0.00 | 0.00 | 69 | 1000.8 |
| 20260505031523 | 75 | 154 | 7.0 | 16.0 | 0.00 | 0.00 | 0.00 | 69 | 1000.9 |
| 20260505030011 | 75 | 144 | 7.0 | 14.0 | 0.00 | 0.00 | 0.00 | 69 | 1000.9 |
| 20260505024512 | 76 | 187 | 5.0 | 11.0 | 0.00 | 0.00 | 0.00 | 68 | 1001.1 |
| 20260505023012 | 76 | 178 | 5.0 | 14.0 | 0.00 | 0.00 | 0.00 | 68 | 1001.1 |
| 20260505021512 | 76 | 143 | 7.0 | 14.0 | 0.00 | 0.00 | 0.00 | 67 | 1000.8 |
| 20260505020011 | 76 | 196 | 6.0 | 16.0 | 0.00 | 0.00 | 0.00 | 67 | 1000.7 |
| 20260505014509 | 76 | 136 | 8.0 | 18.0 | 0.00 | 0.00 | 0.00 | 66 | 1000.6 |
| 20260505013010 | 77 | 177 | 6.0 | 12.0 | 0.00 | 0.00 | 0.00 | 65 | 1000.8 |
| 20260505011509 | 77 | 143 | 7.0 | 15.0 | 0.00 | 0.00 | 0.00 | 65 | 1000.6 |
| 20260505010009 | 77 | 159 | 7.0 | 14.0 | 0.00 | 0.00 | 0.00 | 65 | 1000.7 |
| 20260505004508 | 77 | 178 | 8.0 | 15.0 | 0.00 | 0.00 | 0.00 | 64 | 1000.6 |
| 20260505003007 | 78 | 145 | 7.0 | 18.0 | 0.00 | 0.00 | 0.00 | 63 | 1000.7 |
| 20260505001506 | 78 | 212 | 8.0 | 21.0 | 0.00 | 0.00 | 0.00 | 62 | 1000.8 |
| 20260505000007 | 79 | 161 | 5.0 | 13.0 | 0.00 | 0.00 | 0.00 | 62 | 1000.9 |
| 20260504234509 | 79 | 141 | 7.0 | 16.0 | 0.00 | 0.00 | 0.00 | 62 | 1001.0 |
| 20260504233005 | 79 | 182 | 6.0 | 15.0 | 0.00 | 0.00 | 0.00 | 61 | 1000.9 |
| 20260504231505 | 80 | 190 | 7.0 | 16.0 | 0.00 | 0.00 | 0.00 | 61 | 1000.9 |
| 20260504230003 | 81 | 169 | 8.0 | 24.0 | 0.00 | 0.00 | 0.00 | 59 | 1001.2 |
| 20260504224502 | 81 | 167 | 7.0 | 15.0 | 0.00 | 0.00 | 0.00 | 59 | 1001.3 |
| 20260504223002 | 81 | 177 | 8.0 | 13.0 | 0.00 | 0.00 | 0.00 | 58 | 1001.4 |
| 20260504221600 | 82 | 186 | 7.0 | 15.0 | 0.00 | 0.00 | 0.00 | 58 | 1001.4 |
| 20260504221501 | 82 | 169 | 7.0 | 19.0 | 0.00 | 0.00 | 0.00 | 58 | 1001.3 |
| 20260504220100 | 82 | 166 | 6.0 | 14.0 | 0.00 | 0.00 | 0.00 | 58 | 1001.4 |
| 20260504214504 | 82 | 219 | 6.0 | 15.0 | 0.00 | 0.00 | 0.00 | 57 | 1001.8 |